| time (UTC) | temp F | wind direction | speed knots | gust knots | rain 1hr in | rain 24hr in | rain mn in | humidity % | barometer mb |
| 20260505003133 | 61 | 79 | 0.9 | 0.0 | 0.00 | 0.00 | 0.01 | 86 | 1010.0 |
| 20260505001614 | 61 | 80 | 0.9 | 0.0 | 0.00 | 0.00 | 0.01 | 86 | 1010.0 |
| 20260505000005 | 61 | 40 | 0.9 | 0.0 | 0.00 | 0.00 | 0.01 | 86 | 1009.8 |
| 20260504234630 | 61 | 40 | 2.6 | 0.0 | 0.00 | 0.00 | 0.01 | 87 | 1009.6 |
| 20260504233112 | 61 | 47 | 1.7 | 0.0 | 0.00 | 0.00 | 0.01 | 87 | 1009.4 |
| 20260504231516 | 62 | 55 | 2.6 | 0.0 | 0.00 | 0.00 | 0.01 | 88 | 1009.1 |
| 20260504230001 | 62 | 44 | 1.7 | 0.0 | 0.00 | 0.00 | 0.01 | 88 | 1009.1 |
| 20260504224629 | 62 | 33 | 0.0 | 0.0 | 0.00 | 0.00 | 0.01 | 88 | 1009.0 |
| 20260504223003 | 62 | 33 | 2.6 | 0.0 | 0.00 | 0.00 | 0.01 | 88 | 1008.7 |
| 20260504221625 | 62 | 37 | 0.0 | 0.0 | 0.00 | 0.00 | 0.00 | 88 | 1009.0 |
| 20260504220014 | 62 | 38 | 0.9 | 0.0 | 0.00 | 0.00 | 0.00 | 88 | 1009.3 |
| 20260504214633 | 62 | 35 | 0.9 | 0.0 | 0.00 | 0.00 | 0.02 | 88 | 1009.4 |
| 20260504213103 | 62 | 38 | 0.9 | 0.0 | 0.00 | 0.00 | 0.02 | 88 | 1009.6 |
| 20260504211503 | 63 | 38 | 0.9 | 0.0 | 0.00 | 0.00 | 0.02 | 88 | 1009.9 |
| 20260504210121 | 63 | 49 | 0.0 | 0.0 | 0.00 | 0.00 | 0.02 | 88 | 1009.8 |
| 20260504204559 | 63 | 47 | 0.0 | 0.0 | 0.00 | 0.00 | 0.02 | 87 | 1009.6 |
| 20260504203143 | 63 | 46 | 1.7 | 0.0 | 0.00 | 0.00 | 0.02 | 87 | 1009.4 |
| 20260504201613 | 63 | 61 | 0.0 | 0.0 | 0.00 | 0.00 | 0.02 | 87 | 1009.3 |
| 20260504200005 | 63 | 63 | 1.7 | 0.0 | 0.00 | 0.00 | 0.02 | 87 | 1009.0 |
| 20260504194628 | 63 | 62 | 0.9 | 0.0 | 0.00 | 0.00 | 0.02 | 88 | 1009.0 |
| 20260504193018 | 63 | 70 | 0.9 | 0.0 | 0.00 | 0.00 | 0.02 | 87 | 1008.7 |
| 20260504191502 | 63 | 69 | 2.6 | 0.0 | 0.00 | 0.00 | 0.02 | 87 | 1008.3 |
| 20260504190129 | 63 | 55 | 2.6 | 0.0 | 0.00 | 0.00 | 0.02 | 87 | 1008.0 |
| 20260504184611 | 63 | 65 | 3.5 | 0.0 | 0.00 | 0.00 | 0.02 | 87 | 1008.2 |
| 20260504183024 | 64 | 70 | 2.6 | 0.0 | 0.00 | 0.00 | 0.02 | 87 | 1008.0 |
| 20260504181504 | 64 | 67 | 2.6 | 0.0 | 0.00 | 0.00 | 0.02 | 87 | 1007.9 |
| 20260504180130 | 64 | 69 | 1.7 | 0.0 | 0.00 | 0.00 | 0.02 | 87 | 1008.1 |
| 20260504174611 | 64 | 60 | 3.5 | 0.0 | 0.00 | 0.00 | 0.02 | 86 | 1008.2 |
| 20260504173057 | 65 | 54 | 4.3 | 0.0 | 0.00 | 0.00 | 0.01 | 85 | 1008.4 |
| 20260504171510 | 65 | 59 | 6.1 | 0.0 | 0.00 | 0.00 | 0.00 | 83 | 1008.4 |
| 20260504170134 | 66 | 58 | 6.1 | 0.0 | 0.00 | 0.00 | 0.00 | 82 | 1008.5 |
| 20260504160136 | 66 | 360 | 5.2 | 0.0 | 0.00 | 0.00 | 0.00 | 84 | 1009.0 |
| 20260504150136 | 67 | 360 | 4.3 | 0.0 | 0.00 | 0.00 | 0.00 | 81 | 1008.9 |
| 20260504140138 | 70 | 87 | 10.4 | 0.0 | 0.00 | 0.00 | 0.00 | 70 | 1008.7 |
| 20260504130143 | 71 | 219 | 10.4 | 0.0 | 0.00 | 0.00 | 0.00 | 70 | 1008.8 |
| 20260504120140 | 70 | 90 | 7.0 | 0.0 | 0.00 | 0.00 | 0.00 | 69 | 1009.4 |
| 20260504110134 | 70 | 138 | 9.6 | 0.0 | 0.00 | 0.00 | 0.00 | 69 | 1009.7 |
| 20260504081616 | 68 | 102 | 4.3 | 0.0 | 0.00 | 0.00 | 0.00 | 69 | 1010.0 |
| 20260504070106 | 63 | 103 | 3.5 | 0.0 | 0.00 | 0.00 | 0.00 | 83 | 1010.3 |
| 20260504060115 | 59 | 122 | 0.0 | 0.0 | 0.00 | 0.00 | 0.00 | 88 | 1010.3 |
| 20260504050123 | 59 | 192 | 0.9 | 0.0 | 0.00 | 0.00 | 0.00 | 88 | 1010.5 |
| 20260504044602 | 59 | 193 | 1.7 | 0.0 | 0.00 | 0.00 | 0.00 | 88 | 1010.5 |
| 20260504043012 | 59 | 188 | 2.6 | 0.0 | 0.00 | 0.00 | 0.00 | 88 | 1010.5 |
| 20260504041635 | 59 | 179 | 1.7 | 0.0 | 0.00 | 0.00 | 0.00 | 88 | 1010.7 |
| 20260504040109 | 59 | 188 | 2.6 | 0.0 | 0.00 | 0.00 | 0.00 | 88 | 1010.8 |
| 20260504034518 | 59 | 181 | 2.6 | 0.0 | 0.00 | 0.00 | 0.00 | 88 | 1010.9 |
| 20260504033141 | 59 | 191 | 2.6 | 0.0 | 0.00 | 0.00 | 0.00 | 89 | 1011.0 |
| 20260504031628 | 59 | 208 | 2.6 | 0.0 | 0.00 | 0.00 | 0.00 | 89 | 1011.2 |
| 20260504030119 | 59 | 198 | 2.6 | 0.0 | 0.00 | 0.00 | 0.00 | 88 | 1011.3 |
| 20260504024516 | 59 | 185 | 2.6 | 0.0 | 0.00 | 0.00 | 0.00 | 88 | 1011.3 |
| 20260504023144 | 60 | 188 | 2.6 | 0.0 | 0.00 | 0.00 | 0.00 | 88 | 1011.4 |
| 20260504021625 | 60 | 220 | 0.9 | 0.0 | 0.00 | 0.00 | 0.00 | 88 | 1011.4 |
| 20260504020005 | 60 | 221 | 0.0 | 0.0 | 0.00 | 0.00 | 0.00 | 88 | 1011.5 |
| 20260504014634 | 60 | 221 | 0.0 | 0.0 | 0.00 | 0.00 | 0.00 | 88 | 1011.6 |
| 20260504013117 | 60 | 221 | 0.9 | 0.0 | 0.00 | 0.00 | 0.00 | 88 | 1011.6 |
| 20260504011529 | 60 | 221 | 0.0 | 0.0 | 0.00 | 0.00 | 0.00 | 88 | 1011.7 |
| 20260504010003 | 61 | 220 | 0.0 | 0.0 | 0.00 | 0.00 | 0.00 | 88 | 1011.7 |
| 20260504004639 | 61 | 221 | 0.0 | 0.0 | 0.00 | 0.00 | 0.00 | 88 | 1011.7 |